period_start,C,m1,H,J0,J1,J2,J3,J4,J5,JA,JB,JC,JD,JJ,JK,JN,#
2015-12-09 00:01:22,0.20,6.76,0.00,13.73,18.27,22.23,15.26,51.70,1023.95,2063.97,1719.92,1871.25,2091.27,600.06,619.85,28.77,0000 0000 0000 0000 000000
2015-12-09 00:06:23,0.23,6.77,0.00,13.73,18.27,22.21,15.13,51.53,1023.94,2063.98,1718.04,1869.80,2089.67,599.56,619.33,28.82,0000 0000 0000 0000 000000
2015-12-09 00:11:24,0.22,6.78,0.00,13.72,18.27,22.17,15.22,51.61,1023.94,2063.97,1716.31,1868.45,2087.99,600.22,620.00,28.87,0000 0000 0000 0000 000000
2015-12-09 00:16:26,0.24,6.79,0.00,13.72,18.27,22.26,15.32,51.77,1023.94,2063.95,1714.24,1866.91,2086.46,600.06,619.80,28.92,0000 0000 0000 0000 000000
2015-12-09 00:21:27,0.24,6.80,0.00,13.71,18.27,22.28,15.23,51.83,1023.94,2063.95,1712.30,1865.37,2084.61,599.90,619.76,28.97,0000 0000 0000 0000 000000
2015-12-09 00:26:29,0.23,6.81,0.00,13.71,18.27,22.22,15.26,51.70,1023.94,2063.94,1710.40,1863.83,2082.86,599.94,619.84,29.02,0000 0000 0000 0000 000000
2015-12-09 00:31:30,0.23,6.83,0.00,13.71,18.27,22.21,15.28,51.72,1023.94,2063.88,1708.48,1862.37,2081.22,600.13,619.89,29.07,0000 0000 0000 0000 000000
2015-12-09 00:36:31,0.21,6.84,0.00,13.69,18.27,22.20,15.16,51.59,1023.94,2063.91,1706.83,1860.98,2079.64,599.81,619.63,29.12,0000 0000 0000 0000 000000
2015-12-09 00:41:33,0.24,6.85,0.00,13.70,18.27,22.23,15.26,51.87,1023.94,2063.87,1704.91,1859.58,2077.86,599.84,619.58,29.17,0000 0000 0000 0000 000000
2015-12-09 00:46:34,0.25,6.86,0.00,13.71,18.27,22.16,15.24,51.71,1023.94,2063.84,1702.78,1858.02,2076.29,599.82,619.51,29.22,0000 0000 0000 0000 000000
2015-12-09 00:51:35,0.26,6.87,0.00,13.69,18.27,22.27,15.22,51.90,1023.92,2063.85,1700.63,1856.48,2074.58,599.76,619.53,29.27,0000 0000 0000 0000 000000
2015-12-09 00:56:37,0.23,6.89,0.00,13.69,18.27,22.27,15.24,51.77,1023.93,2063.88,1698.73,1855.01,2072.79,599.81,619.60,29.32,0000 0000 0000 0000 000000
2015-12-09 01:01:38,0.22,6.90,0.00,13.69,18.27,22.28,15.22,51.75,1023.90,2063.88,1697.05,1853.66,2071.10,600.07,619.88,29.37,0000 0000 0000 0000 000000
2015-12-09 01:06:39,0.20,6.91,0.00,13.68,18.27,22.16,15.26,51.79,1023.84,2063.84,1695.29,1852.37,2069.54,599.98,619.75,29.42,0000 0000 0000 0000 000000
2015-12-09 01:11:41,0.24,6.92,0.00,13.69,18.27,22.18,15.28,51.68,1023.83,2063.89,1693.41,1850.91,2067.97,599.95,619.84,29.47,0000 0000 0000 0000 000000
2015-12-09 01:16:42,0.23,6.93,0.00,13.68,18.26,22.20,15.32,51.74,1023.73,2063.89,1691.52,1849.52,2066.37,600.26,619.92,29.52,0000 0000 0000 0000 000000
2015-12-09 01:21:43,0.23,6.94,0.00,13.68,18.25,22.17,15.21,51.73,1023.76,2063.92,1689.71,1848.12,2064.75,599.92,619.65,29.57,0000 0000 0000 0000 000000
2015-12-09 01:26:44,0.21,6.96,0.00,13.68,18.24,22.24,15.23,51.67,1023.76,2063.94,1688.07,1846.77,2063.34,599.88,619.69,29.62,0000 0000 0000 0000 000000
2015-12-09 01:31:46,0.22,6.97,0.00,13.69,18.24,22.18,15.22,51.79,1023.61,2063.93,1686.27,1845.50,2061.82,600.08,619.74,29.67,0000 0000 0000 0000 000000
2015-12-09 01:36:47,0.20,6.98,0.00,13.67,18.24,22.25,15.29,51.80,1023.54,2063.86,1684.43,1844.04,2060.29,599.88,619.48,29.72,0000 0000 0000 0000 000000
2015-12-09 01:41:48,0.26,6.99,0.00,13.69,18.24,22.20,15.23,51.92,1023.52,2063.92,1682.59,1842.65,2058.73,599.91,619.50,29.77,0000 0000 0000 0000 000000
2015-12-09 01:46:50,0.23,7.00,0.00,13.71,18.24,22.19,15.26,51.98,1023.65,2063.96,1680.72,1841.23,2057.09,600.11,619.59,29.82,0000 0000 0000 0000 000000
2015-12-09 01:51:51,0.25,7.01,0.00,13.72,18.24,22.20,15.22,51.91,1023.77,2063.96,1678.81,1839.74,2055.42,599.90,619.60,29.88,0000 0000 0000 0000 000000
2015-12-09 01:56:52,0.22,7.03,0.00,13.70,18.24,22.18,15.31,52.01,1023.87,2063.94,1676.98,1838.27,2053.64,600.36,620.09,29.93,0000 0000 0000 0000 000000
2015-12-09 02:01:54,0.22,7.04,0.00,13.69,18.24,22.23,15.33,51.82,1023.82,2063.95,1675.35,1836.80,2051.94,600.22,619.93,29.98,0000 0000 0000 0000 000000
2015-12-09 02:06:55,0.23,7.05,0.00,13.71,18.25,22.29,15.26,51.77,1023.73,2063.94,1673.45,1835.37,2050.26,599.91,619.59,30.03,0000 0000 0000 0000 000000
2015-12-09 02:11:56,0.23,7.06,0.00,13.69,18.26,22.31,15.23,51.86,1023.73,2063.80,1671.62,1833.87,2048.62,599.83,619.51,30.08,0000 0000 0000 0000 000000
2015-12-09 02:16:57,0.18,7.07,0.00,13.72,18.26,22.33,15.25,52.02,1023.80,2063.46,1669.68,1832.54,2047.17,600.00,619.68,30.13,0000 0000 0000 0000 000000
2015-12-09 02:21:59,0.28,7.08,0.00,13.77,18.27,22.28,15.27,52.08,1023.76,2063.71,1667.72,1831.09,2045.79,600.05,619.58,30.18,0000 0000 0000 0000 000000
2015-12-09 02:27:00,0.27,7.10,0.00,13.76,18.27,22.21,15.19,52.01,1023.89,2063.91,1665.77,1829.57,2044.06,600.10,619.59,30.23,0000 0000 0000 0000 000000
2015-12-09 02:32:02,0.23,7.11,0.00,13.74,18.27,22.22,15.24,52.00,1023.93,2063.87,1663.88,1828.05,2042.33,599.78,619.49,30.28,0000 0000 0000 0000 000000
2015-12-09 02:37:03,0.27,7.12,0.00,13.74,18.27,22.16,15.12,51.88,1023.83,2063.87,1661.91,1826.53,2040.61,599.75,619.49,30.33,0000 0000 0000 0000 000000
2015-12-09 02:42:04,0.28,7.14,0.00,13.74,18.27,22.20,15.31,51.90,1023.54,2063.86,1659.69,1824.83,2038.76,600.10,619.57,30.38,0000 0000 0000 0000 000000
2015-12-09 02:47:06,0.24,7.15,0.00,13.74,18.27,22.25,15.20,51.97,1023.54,2063.84,1657.83,1823.34,2036.83,599.65,619.16,30.43,0000 0000 0000 0000 000000
2015-12-09 02:52:07,0.21,7.16,0.00,13.72,18.27,22.27,15.27,51.83,1023.55,2063.89,1656.17,1821.87,2035.25,599.80,619.28,30.48,0000 0000 0000 0000 000000
2015-12-09 02:57:08,0.24,7.17,0.00,13.74,18.27,22.19,15.25,51.83,1023.55,2063.75,1654.26,1820.46,2033.58,599.81,619.36,30.53,0000 0000 0000 0000 000000
2015-12-09 03:02:10,0.23,7.18,0.00,13.72,18.27,22.17,15.22,51.95,1023.55,2063.80,1652.30,1819.05,2032.08,599.71,619.02,30.58,0000 0000 0000 0000 000000
2015-12-09 03:07:11,0.24,7.20,0.00,13.74,18.27,22.17,15.26,52.02,1023.51,2063.85,1650.49,1817.67,2030.56,600.13,619.60,30.63,0000 0000 0000 0000 000000
2015-12-09 03:12:12,0.23,7.21,0.00,13.71,18.27,22.23,15.20,52.04,1023.49,2063.86,1648.61,1816.36,2029.01,600.08,619.56,30.68,0000 0000 0000 0000 000000
2015-12-09 03:17:14,0.18,7.22,0.00,13.73,18.27,22.25,15.18,51.98,1023.52,2063.85,1647.19,1815.11,2027.60,599.75,619.15,30.73,0000 0000 0000 0000 000000
2015-12-09 03:22:15,0.22,7.23,0.00,13.76,18.27,22.29,15.29,52.00,1023.49,2063.85,1645.60,1813.84,2026.20,600.24,619.64,30.78,0000 0000 0000 0000 000000
2015-12-09 03:27:16,0.23,7.24,0.00,13.76,18.27,22.19,15.21,52.02,1023.46,2063.87,1643.88,1812.49,2024.66,600.14,619.52,30.83,0000 0000 0000 0000 000000
2015-12-09 03:32:17,0.19,7.25,0.00,13.77,18.27,22.14,15.31,52.01,1023.46,2063.77,1642.16,1811.22,2023.15,600.25,619.58,30.88,0000 0000 0000 0000 000000
2015-12-09 03:37:18,0.14,7.26,0.00,13.79,18.27,22.21,15.23,51.85,1023.47,2063.51,1640.74,1810.09,2021.81,599.94,619.25,30.93,0000 0000 0000 0000 000000
2015-12-09 03:42:20,0.15,7.27,0.00,13.76,18.27,22.16,15.24,51.81,1023.48,2063.35,1639.62,1809.03,2020.62,600.24,619.61,30.98,0000 0000 0000 0000 000000
2015-12-09 03:47:21,0.17,7.27,0.00,13.75,18.27,22.28,15.31,51.96,1023.47,2063.24,1638.14,1807.92,2019.46,600.09,619.53,31.03,0000 0000 0000 0000 000000
2015-12-09 03:52:23,0.21,7.29,0.00,13.73,18.27,22.23,15.25,51.88,1023.46,2063.30,1636.64,1806.78,2018.24,599.89,619.36,31.08,0000 0000 0000 0000 000000
2015-12-09 03:57:24,0.24,7.29,0.00,13.69,18.27,22.22,15.24,51.98,1023.48,2063.20,1634.68,1805.50,2016.77,599.78,619.30,31.13,0000 0000 0000 0000 000000
2015-12-09 04:02:25,0.15,7.30,0.00,13.74,18.27,22.25,15.27,51.84,1023.46,2063.32,1633.69,1804.48,2015.61,600.12,619.51,31.18,0000 0000 0000 0000 000000
2015-12-09 04:07:26,0.19,7.31,0.00,13.72,18.27,22.31,15.20,51.82,1023.45,2063.40,1632.35,1803.41,2014.32,599.78,619.34,31.23,0000 0000 0000 0000 000000
2015-12-09 04:12:27,0.12,7.32,0.00,13.71,18.27,22.17,15.24,51.84,1023.45,2063.23,1631.19,1802.42,2013.22,599.70,619.17,31.28,0000 0000 0000 0000 000000
2015-12-09 04:17:29,0.15,7.33,0.00,13.68,18.27,22.28,15.25,51.90,1023.45,2063.12,1629.95,1801.45,2012.13,599.92,619.46,31.33,0000 0000 0000 0000 000000
2015-12-09 04:22:30,0.19,7.34,0.00,13.69,18.27,22.28,15.27,51.92,1023.45,2063.08,1628.36,1800.42,2010.94,600.16,619.69,31.38,0000 0000 0000 0000 000000
2015-12-09 04:27:31,0.23,7.35,0.00,13.74,18.27,22.25,15.22,52.00,1023.45,2063.16,1626.62,1799.11,2009.60,600.14,619.60,31.43,0000 0000 0000 0000 000000
2015-12-09 04:32:33,0.19,7.36,0.00,13.74,18.27,22.25,15.27,52.06,1023.45,2063.19,1625.11,1797.87,2008.19,600.07,619.36,31.48,0000 0000 0000 0000 000000
2015-12-09 04:37:34,0.17,7.37,0.00,13.71,18.27,22.22,15.21,51.95,1023.45,2063.30,1623.92,1796.83,2006.82,600.07,619.67,31.53,0000 0000 0000 0000 000000
2015-12-09 04:42:35,0.16,7.38,0.00,13.71,18.27,22.23,15.22,51.85,1023.45,2063.25,1622.81,1795.87,2005.68,599.85,619.42,31.58,0000 0000 0000 0000 000000
2015-12-09 04:47:37,0.14,7.39,0.00,13.71,18.28,22.21,15.18,51.88,1023.45,2063.08,1621.64,1794.90,2004.62,599.51,618.98,31.63,0000 0000 0000 0000 000000
2015-12-09 04:52:38,0.16,7.39,0.00,13.72,18.27,22.24,15.23,51.83,1023.45,2063.07,1620.39,1793.94,2003.56,600.19,619.66,31.68,0000 0000 0000 0000 000000
2015-12-09 04:57:39,0.18,7.40,0.00,13.70,18.27,22.20,15.18,51.90,1023.45,2063.11,1619.01,1792.95,2002.56,599.86,619.31,31.73,0000 0000 0000 0000 000000
2015-12-09 05:02:40,0.18,7.41,0.00,13.72,18.27,22.22,15.17,51.89,1023.44,2063.10,1617.51,1791.88,2001.40,599.82,619.26,31.78,0000 0000 0000 0000 000000
2015-12-09 05:07:42,0.25,7.42,0.00,13.73,18.27,22.18,15.26,52.06,1023.45,2063.09,1615.76,1790.61,1999.80,600.03,619.48,31.83,0000 0000 0000 0000 000000
2015-12-09 05:12:43,0.20,7.44,0.00,13.70,18.27,22.22,15.28,51.90,1023.45,2063.13,1614.07,1789.33,1998.29,599.99,619.41,31.88,0000 0000 0000 0000 000000
2015-12-09 05:17:45,0.23,7.45,0.00,13.68,18.27,22.20,15.29,51.85,1023.45,2063.18,1612.47,1788.03,1996.80,600.08,619.64,31.93,0000 0000 0000 0000 000000
2015-12-09 05:22:46,0.22,7.46,0.00,13.69,18.26,22.21,15.25,51.90,1023.45,2063.08,1610.77,1786.72,1995.29,600.08,619.56,31.98,0000 0000 0000 0000 000000
2015-12-09 05:27:48,0.22,7.47,0.00,13.71,18.26,22.15,15.22,51.88,1023.44,2063.07,1609.10,1785.43,1993.76,600.25,619.72,32.03,0000 0000 0000 0000 000000
2015-12-09 05:32:49,0.21,7.48,0.00,13.76,18.25,22.26,15.26,51.92,1023.45,2063.07,1607.39,1784.13,1992.37,599.96,619.27,32.08,0000 0000 0000 0000 000000
2015-12-09 05:37:50,0.26,7.49,0.00,13.74,18.25,22.23,15.22,51.93,1023.44,2063.16,1605.64,1782.81,1990.83,599.79,619.19,32.13,0000 0000 0000 0000 000000
2015-12-09 05:42:51,0.21,7.50,0.00,13.70,18.24,22.19,15.21,52.07,1023.37,2063.13,1603.85,1781.46,1989.40,599.82,619.29,32.18,0000 0000 0000 0000 000000
2015-12-09 05:47:53,0.22,7.52,0.00,13.70,18.24,22.24,15.29,52.01,1023.33,2063.17,1602.19,1780.11,1987.81,600.06,619.55,32.23,0000 0000 0000 0000 000000
2015-12-09 05:52:54,0.24,7.53,0.00,13.71,18.24,22.24,15.35,51.87,1023.19,2063.13,1600.46,1778.75,1986.26,600.23,619.58,32.28,0000 0000 0000 0000 000000
2015-12-09 05:57:55,0.22,7.54,0.00,13.73,18.24,22.21,15.23,51.82,1023.26,2063.12,1598.86,1777.39,1984.68,600.09,619.38,32.33,0000 0000 0000 0000 000000
2015-12-09 06:02:56,0.19,7.55,0.00,13.74,18.24,22.11,15.18,51.78,1023.20,2063.08,1597.38,1776.11,1983.33,599.81,618.99,32.39,0000 0000 0000 0000 000000
2015-12-09 06:07:58,0.23,7.56,0.00,13.72,18.24,22.15,15.27,51.78,1023.38,2063.06,1595.57,1774.82,1981.95,600.12,619.54,32.44,0000 0000 0000 0000 000000
2015-12-09 06:12:59,0.22,7.57,0.00,13.70,18.22,22.21,15.23,51.88,1023.41,2063.12,1593.96,1773.62,1980.65,600.04,619.52,32.49,0000 0000 0000 0000 000000
2015-12-09 06:18:01,0.19,7.58,0.00,13.68,18.22,22.24,15.16,51.70,1023.12,2063.13,1592.58,1772.52,1979.43,599.64,619.04,32.54,0000 0000 0000 0000 000000
2015-12-09 06:23:02,0.17,7.59,0.00,13.67,18.22,22.22,15.16,51.76,1022.99,2063.09,1591.06,1771.36,1978.00,599.81,619.15,32.59,0000 0000 0000 0000 000000
2015-12-09 06:28:03,0.22,7.60,0.00,13.69,18.21,22.22,15.21,51.82,1022.98,2063.12,1589.62,1770.16,1976.71,600.01,619.22,32.64,0000 0000 0000 0000 000000
2015-12-09 06:33:04,0.21,7.61,0.00,13.69,18.20,22.19,15.18,51.76,1022.98,2063.15,1587.94,1768.93,1975.47,600.21,619.59,32.69,0000 0000 0000 0000 000000
2015-12-09 06:38:06,0.28,7.63,0.00,13.67,18.19,22.17,15.23,51.98,1022.99,2063.40,1586.14,1767.66,1974.01,600.27,619.56,32.74,0000 0000 0000 0000 000000
2015-12-09 06:43:07,0.23,7.64,0.00,13.67,18.19,22.16,15.24,51.85,1023.05,2063.67,1584.62,1766.45,1972.54,599.84,619.22,32.79,0000 0000 0000 0000 000000
2015-12-09 06:48:09,0.18,7.65,0.00,13.63,18.19,22.15,15.27,51.85,1023.05,2063.60,1582.93,1765.21,1971.18,599.83,619.26,32.84,0000 0000 0000 0000 000000
2015-12-09 06:53:10,0.22,7.66,0.00,13.71,18.19,22.14,15.21,51.75,1023.05,2063.50,1581.45,1763.91,1969.72,599.99,619.19,32.89,0000 0000 0000 0000 000000
2015-12-09 06:58:11,0.22,7.67,0.00,13.67,18.18,22.17,15.30,51.91,1023.02,2063.54,1579.87,1762.70,1968.37,600.44,619.61,32.94,0000 0000 0000 0000 000000
2015-12-09 07:03:13,0.23,7.68,0.00,13.64,18.17,22.17,15.27,51.91,1023.04,2063.61,1578.09,1761.48,1967.01,599.87,619.19,32.99,0000 0000 0000 0000 000000
2015-12-09 07:08:14,0.21,7.70,0.00,13.65,18.17,22.18,15.22,51.83,1023.01,2063.63,1576.53,1760.25,1965.65,599.87,619.26,33.04,0000 0000 0000 0000 000000
2015-12-09 07:13:15,0.18,7.71,0.00,13.65,18.17,22.15,15.21,51.74,1022.97,2063.53,1575.08,1758.96,1964.23,599.76,619.08,33.09,0000 0000 0000 0000 000000
2015-12-09 07:18:16,0.24,7.72,0.00,13.65,18.17,22.10,15.23,51.81,1022.96,2063.62,1573.64,1757.78,1962.84,600.00,619.45,33.14,0000 0000 0000 0000 000000
2015-12-09 07:23:17,0.20,7.73,0.00,13.64,18.17,22.13,15.24,51.84,1022.96,2063.67,1572.24,1756.68,1961.60,599.90,619.33,33.19,0000 0000 0000 0000 000000
2015-12-09 07:28:19,0.21,7.74,0.00,13.65,18.17,22.20,15.30,51.92,1022.97,2063.80,1570.76,1755.64,1960.46,600.26,619.51,33.24,0000 0000 0000 0000 000000
2015-12-09 07:33:21,0.17,7.75,0.00,13.64,18.16,22.16,15.22,51.82,1022.96,2063.65,1569.35,1754.52,1959.24,600.03,619.37,33.29,0000 0000 0000 0000 000000
2015-12-09 07:38:22,0.21,7.76,0.00,13.64,18.14,22.15,15.22,51.92,1022.96,2063.75,1567.85,1753.39,1957.98,599.98,619.37,33.35,0000 0000 0000 0000 000000
2015-12-09 07:43:23,0.20,7.77,0.00,13.66,18.14,22.21,15.20,51.88,1022.96,2063.82,1566.44,1752.29,1956.77,599.97,619.22,33.40,0000 0000 0000 0000 000000
2015-12-09 07:48:25,0.19,7.78,0.00,13.63,18.14,22.08,15.20,51.77,1022.96,2063.88,1565.02,1751.23,1955.52,600.21,619.62,33.45,0000 0000 0000 0000 000000
2015-12-09 07:53:26,0.20,7.79,0.00,13.62,18.14,22.06,15.20,51.92,1022.96,2063.87,1563.51,1750.03,1954.28,599.79,619.25,33.50,0000 0000 0000 0000 000000
2015-12-09 07:58:27,0.21,7.80,0.00,13.62,18.14,22.12,15.25,51.84,1022.97,2063.95,1561.94,1748.87,1952.97,600.14,619.65,33.55,0000 0000 0000 0000 000000
2015-12-09 08:03:28,0.18,7.81,0.00,13.59,18.14,22.14,15.32,51.97,1022.97,2063.94,1560.78,1747.83,1951.67,600.34,619.79,33.60,0000 0000 0000 0000 000000
2015-12-09 08:08:30,0.20,7.82,0.00,13.60,18.14,22.14,15.19,51.91,1022.97,2063.95,1559.56,1746.77,1950.42,599.82,619.31,33.65,0000 0000 0000 0000 000000
2015-12-09 08:13:31,0.17,7.83,0.00,13.62,18.14,22.14,15.26,51.69,1022.98,2063.94,1558.31,1745.74,1949.17,599.79,619.21,33.70,0000 0000 0000 0000 000000
2015-12-09 08:18:32,0.17,7.84,0.00,13.59,18.14,22.19,15.26,51.72,1022.98,2063.88,1556.90,1744.75,1948.02,599.75,619.24,33.75,0000 0000 0000 0000 000000
2015-12-09 08:23:33,0.20,7.84,0.00,13.57,18.14,22.12,15.24,51.76,1022.98,2063.86,1555.58,1743.69,1946.83,599.89,619.44,33.80,0000 0000 0000 0000 000000
2015-12-09 08:28:34,0.20,7.86,0.00,13.57,18.13,22.07,15.17,51.72,1022.97,2063.83,1554.15,1742.55,1945.68,599.94,619.47,33.85,0000 0000 0000 0000 000000
2015-12-09 08:33:36,0.22,7.87,0.00,13.57,18.12,22.02,15.20,51.83,1022.97,2063.93,1552.60,1741.49,1944.46,600.06,619.57,33.90,0000 0000 0000 0000 000000
2015-12-09 08:38:37,0.17,7.88,0.00,13.57,18.12,22.10,15.24,51.88,1022.96,2063.91,1551.22,1740.36,1943.29,599.89,619.36,33.95,0000 0000 0000 0000 000000
2015-12-09 08:43:38,0.19,7.89,0.00,13.57,18.12,22.07,15.16,51.92,1022.96,2063.98,1549.81,1739.36,1942.08,599.88,619.38,34.00,0000 0000 0000 0000 000000
2015-12-09 08:48:39,0.18,7.90,0.00,13.55,18.12,22.21,15.28,51.90,1022.95,2063.98,1548.47,1738.33,1940.92,600.01,619.54,34.05,0000 0000 0000 0000 000000
2015-12-09 08:53:41,0.19,7.91,0.00,13.56,18.12,22.15,15.23,52.08,1022.95,2063.97,1547.08,1737.22,1939.69,599.99,619.54,34.10,0000 0000 0000 0000 000000
2015-12-09 08:58:42,0.17,7.92,0.00,13.54,18.11,22.06,15.29,51.92,1022.96,2063.96,1545.86,1736.13,1938.46,599.92,619.42,34.15,0000 0000 0000 0000 000000
2015-12-09 09:03:44,0.18,7.93,0.00,13.55,18.10,22.05,15.28,52.02,1022.96,2063.96,1544.62,1735.10,1937.26,600.17,619.72,34.20,0000 0000 0000 0000 000000
2015-12-09 09:08:45,0.17,7.94,0.00,13.56,18.09,22.10,15.26,52.02,1022.96,2063.97,1543.41,1734.05,1936.03,599.84,619.35,34.26,0000 0000 0000 0000 000000
2015-12-09 09:13:46,0.19,7.95,0.00,13.51,18.09,22.08,15.30,51.99,1022.96,2063.98,1541.92,1733.01,1934.93,600.42,619.96,34.31,0000 0000 0000 0000 000000
2015-12-09 09:18:48,0.19,7.95,0.00,13.50,18.09,22.09,15.22,52.01,1022.96,2063.97,1540.57,1732.01,1933.76,599.96,619.53,34.36,0000 0000 0000 0000 000000
2015-12-09 09:23:49,0.17,7.96,0.00,13.51,18.09,22.22,15.30,52.13,1022.96,2063.99,1539.32,1731.02,1932.70,600.11,619.74,34.41,0000 0000 0000 0000 000000
2015-12-09 09:28:50,0.17,7.97,0.00,13.54,18.08,22.09,15.27,52.08,1022.96,2063.98,1538.08,1730.00,1931.57,600.11,619.64,34.46,0000 0000 0000 0000 000000
2015-12-09 09:33:52,0.17,7.98,0.00,13.60,18.07,22.12,15.24,52.07,1022.96,2063.97,1536.95,1729.04,1930.39,599.88,619.35,34.51,0000 0000 0000 0000 000000
2015-12-09 09:38:53,0.19,7.99,0.00,13.56,18.07,22.08,15.24,51.98,1022.96,2063.98,1535.73,1728.09,1929.27,599.92,619.49,34.56,0000 0000 0000 0000 000000
2015-12-09 09:43:54,0.15,8.00,0.00,13.54,18.07,22.09,15.18,52.08,1022.96,2063.99,1534.76,1727.23,1928.29,599.92,619.62,34.61,0000 0000 0000 0000 000000
2015-12-09 09:48:55,0.18,8.01,0.00,13.53,18.07,22.07,15.23,51.98,1022.96,2063.98,1533.56,1726.42,1927.15,599.82,619.26,34.66,0000 0000 0000 0000 000000
2015-12-09 09:53:56,0.17,8.02,0.00,13.51,18.05,22.01,15.27,51.98,1022.94,2063.98,1532.41,1725.35,1926.05,599.97,619.56,34.71,0000 0000 0000 0000 000000
2015-12-09 09:58:58,0.16,8.02,0.00,13.57,18.04,22.03,15.23,52.00,1022.93,2063.99,1531.13,1724.48,1924.97,600.14,619.60,34.76,0000 0000 0000 0000 000000
2015-12-09 10:03:59,0.20,8.03,0.00,13.56,18.04,22.03,15.28,52.07,1022.95,2063.99,1529.77,1723.56,1923.89,599.83,619.34,34.81,0000 0000 0000 0000 000000
2015-12-09 10:09:01,0.18,8.04,0.00,13.54,18.04,22.09,15.25,52.20,1022.95,2063.99,1528.53,1722.54,1922.84,600.16,619.67,34.86,0000 0000 0000 0000 000000
2015-12-09 10:14:02,0.18,8.05,0.00,13.52,18.02,22.04,15.27,52.20,1022.95,2063.99,1527.32,1721.51,1921.71,600.01,619.63,34.91,0000 0000 0000 0000 000000
2015-12-09 10:19:03,0.16,8.06,0.00,13.51,18.02,21.96,15.24,52.07,1022.94,2063.99,1526.12,1720.57,1920.58,599.88,619.45,34.96,0000 0000 0000 0000 000000
2015-12-09 10:24:04,0.18,8.07,0.00,13.49,18.02,21.96,15.36,52.01,1022.94,2063.99,1524.79,1719.68,1919.66,600.32,620.01,35.01,0000 0000 0000 0000 000000
2015-12-09 10:29:05,0.18,8.08,0.00,13.49,18.02,21.94,15.28,52.19,1022.89,2063.99,1523.55,1718.66,1918.61,599.77,619.36,35.06,0000 0000 0000 0000 000000
2015-12-09 10:34:07,0.16,8.09,0.00,13.51,18.02,21.99,15.22,52.18,1022.77,2063.99,1522.28,1717.67,1917.57,600.22,619.73,35.12,0000 0000 0000 0000 000000
2015-12-09 10:39:08,0.16,8.10,0.00,13.50,18.02,22.02,15.26,52.22,1022.71,2063.99,1521.00,1716.73,1916.48,599.70,619.17,35.17,0000 0000 0000 0000 000000
2015-12-09 10:44:09,0.20,8.11,0.00,13.49,18.02,22.02,15.23,52.24,1022.64,2064.00,1519.73,1715.68,1915.34,599.92,619.39,35.22,0000 0000 0000 0000 000000
2015-12-09 10:49:11,0.16,8.11,0.00,13.47,18.02,22.01,15.13,52.10,1022.60,2064.02,1518.67,1714.75,1914.19,599.85,619.29,35.27,0000 0000 0000 0000 000000
2015-12-09 10:54:12,0.18,8.12,0.00,13.45,18.02,22.03,15.22,52.13,1022.50,2064.01,1517.36,1713.71,1913.10,600.04,619.42,35.32,0000 0000 0000 0000 000000
2015-12-09 10:59:13,0.15,8.13,0.00,13.44,18.02,21.99,15.25,52.12,1022.49,2064.00,1516.30,1712.81,1911.99,600.06,619.46,35.37,0000 0000 0000 0000 000000
2015-12-09 11:04:14,0.15,8.14,0.00,13.45,18.02,22.04,15.22,52.07,1022.48,2064.00,1515.29,1711.92,1910.92,599.98,619.42,35.42,0000 0000 0000 0000 000000
2015-12-09 11:09:15,0.16,8.15,0.00,13.45,18.02,22.03,15.23,52.22,1022.48,2064.00,1514.07,1710.98,1909.91,599.87,619.25,35.47,0000 0000 0000 0000 000000
2015-12-09 11:14:16,0.16,8.16,0.00,13.47,18.02,22.01,15.20,51.94,1022.48,2064.00,1512.99,1710.08,1908.91,600.01,619.54,35.52,0000 0000 0000 0000 000000
2015-12-09 11:19:18,0.17,8.17,0.00,13.49,18.02,22.04,15.24,52.00,1022.48,2064.00,1511.80,1709.18,1907.94,600.18,619.55,35.57,0000 0000 0000 0000 000000
2015-12-09 11:24:19,0.16,8.17,0.00,13.47,18.02,21.99,15.25,51.98,1022.48,2064.00,1510.80,1708.25,1906.89,599.62,619.08,35.62,0000 0000 0000 0000 000000
2015-12-09 11:29:20,0.16,8.18,0.00,13.48,18.02,21.99,15.22,52.04,1022.48,2064.00,1509.75,1707.45,1905.91,600.21,619.71,35.67,0000 0000 0000 0000 000000
2015-12-09 11:34:22,0.17,8.19,0.00,13.45,18.02,22.01,15.21,52.07,1022.48,2064.00,1508.54,1706.55,1904.99,599.99,619.54,35.72,0000 0000 0000 0000 000000
2015-12-09 11:39:23,0.14,8.20,0.00,13.45,18.02,21.98,15.24,52.02,1022.47,2064.00,1507.41,1705.77,1904.08,599.73,619.15,35.77,0000 0000 0000 0000 000000
2015-12-09 11:44:24,0.15,8.21,0.00,13.49,18.01,22.05,15.23,52.02,1022.45,2064.01,1506.39,1704.88,1903.14,599.72,619.15,35.82,0000 0000 0000 0000 000000
2015-12-09 11:49:25,0.15,8.22,0.00,13.52,18.00,22.05,15.24,51.97,1022.46,2064.00,1505.29,1704.05,1902.15,600.06,619.32,35.87,0000 0000 0000 0000 000000
2015-12-09 11:54:27,0.15,8.22,0.00,13.50,17.99,21.97,15.28,52.03,1022.46,2064.00,1504.51,1703.18,1901.13,600.10,619.50,35.92,0000 0000 0000 0000 000000
2015-12-09 11:59:28,0.17,8.23,0.00,13.48,17.99,21.97,15.26,52.00,1022.45,2064.00,1503.23,1702.27,1900.15,600.10,619.46,35.97,0000 0000 0000 0000 000000
2015-12-09 12:04:29,0.16,8.24,0.00,13.46,17.99,22.01,15.27,52.18,1022.26,2064.01,1501.96,1701.37,1899.22,599.95,619.15,36.02,0000 0000 0000 0000 000000
2015-12-09 12:09:30,0.17,8.25,0.00,13.45,17.99,22.00,15.18,52.03,1022.10,2064.01,1500.83,1700.54,1898.20,599.83,618.97,36.08,0000 0000 0000 0000 000000
2015-12-09 12:14:31,0.17,8.26,0.00,13.43,17.99,21.97,15.24,52.27,1022.03,2064.00,1499.56,1699.69,1897.27,599.96,619.06,36.13,0000 0000 0000 0000 000000
2015-12-09 12:19:33,0.14,8.27,0.00,13.39,17.99,21.92,15.21,52.33,1022.02,2064.01,1498.53,1698.84,1896.36,599.55,618.86,36.18,0000 0000 0000 0000 000000
2015-12-09 12:24:34,0.14,8.27,0.00,13.39,17.98,21.98,15.23,52.35,1022.01,2064.02,1497.51,1698.01,1895.48,599.80,619.03,36.23,0000 0000 0000 0000 000000
2015-12-09 12:29:35,0.12,8.28,0.00,13.43,17.98,22.00,15.39,52.25,1022.14,2064.03,1496.91,1697.15,1894.47,600.08,619.41,36.28,0000 0000 0000 0000 000000
2015-12-09 12:34:36,0.13,8.28,0.00,13.44,17.98,21.94,15.25,52.08,1022.30,2064.02,1496.03,1696.51,1893.63,599.63,619.14,36.33,0000 0000 0000 0000 000000
2015-12-09 12:39:38,0.12,8.29,0.00,13.43,17.98,21.94,15.26,52.07,1022.42,2064.02,1495.15,1695.79,1892.74,600.37,619.79,36.38,0000 0000 0000 0000 000000
2015-12-09 12:44:39,0.13,8.30,0.00,13.45,17.97,21.95,15.25,51.87,1022.33,2064.00,1494.23,1694.99,1891.86,599.99,619.31,36.43,0000 0000 0000 0000 000000
2015-12-09 12:49:41,0.15,8.31,0.00,13.42,17.97,21.96,15.30,51.98,1022.30,2064.00,1493.30,1694.14,1891.01,600.33,619.66,36.48,0000 0000 0000 0000 000000
2015-12-09 12:54:42,0.16,8.32,0.00,13.40,17.97,21.94,15.28,52.08,1022.28,2064.01,1492.27,1693.38,1890.13,600.27,619.77,36.53,0000 0000 0000 0000 000000